Rome, OR

1:43 PM MST on November 22, 2017 (GMT -0700)
Rome State

Weather History for KREO - February, 2012

Change the Weather History Date:

Monday, February 27, 2012

  Actual Average Record
Temperature  
Mean Temperature 26 °F 36 °F  
Max Temperature 39 °F 49 °F 65 °F (1992)
Min Temperature 12 °F 24 °F 5 °F (1962)
Degree Days  
Heating Degree Days 39 29  
Month to date heating degree days 849 855  
Since 1 July heating degree days 4480 4704  
Cooling Degree Days 0 0  
Month to date cooling degree days 0 0  
Year to date cooling degree days 0 0  
Moisture  
Dew Point 12 °F    
Average Humidity 59    
Maximum Humidity 84    
Minimum Humidity 33    
Precipitation  
Precipitation 0.00 in 0.02 in 0.32 in (2000)
Month to date precipitation 0.40 0.73  
Year to date precipitation 1.32 1.38  
Sea Level Pressure  
Sea Level Pressure 29.92 in    
Wind  
Wind Speed 6 mph (NNE)    
Max Wind Speed 10 mph    
Max Gust Speed 16 mph    
T = Trace of Precipitation, MM = Missing Value Source: NWS Daily Summary

Daily Weather History Graph

Daily Weather History Graph

Search for Another Location

Airport or City:

Trip Planner

Search our weather history database for the weather conditions in past years. The results will help you decide how hot, cold, wet, or windy it might be!

Date:

Astronomy

Feb. 27, 2012 Rise Set
Actual Time 6:31 AM PST 5:38 PM PST
Civil Twilight 6:02 AM PST 6:06 PM PST
Nautical Twilight 5:30 AM PST 6:39 PM PST
Astronomical Twilight 4:57 AM PST 7:12 PM PST
Moon 8:54 AM PST (2/27) 11:45 PM PST (2/27)
Length of Visible Light 12h 04m
Length of Day
11h 07m
Waxing Crescent, 30% of the Moon is Illuminated
Feb 27
Waxing Crescent
Feb 29
First Quarter
Mar 8
Full
Mar 14
Last Quarter
Mar 22
New

Hourly Weather History & Observations

Time (PST) Temp. Windchill Dew Point Humidity Pressure Visibility Wind Dir Wind Speed Gust Speed Precip Events Conditions
12:52 AM 24.1 °F 16.0 °F 12.9 °F 62% 29.93 in - NNE 6.9 mph - N/A   Unknown
1:52 AM 24.1 °F 18.2 °F 14.0 °F 65% 29.92 in - NNE 4.6 mph - N/A   Unknown
2:52 AM 25.0 °F 17.1 °F 12.9 °F 60% 29.90 in - North 6.9 mph - N/A   Unknown
3:52 AM 25.0 °F 18.1 °F 12.0 °F 58% 29.91 in - NNE 5.8 mph - N/A   Unknown
4:52 AM 23.0 °F 14.7 °F 12.0 °F 63% 29.91 in - NNE 6.9 mph - N/A   Unknown
5:52 AM 19.9 °F - 10.9 °F 68% 29.94 in - Calm Calm - N/A   Unknown
6:52 AM 14.0 °F - 9.0 °F 80% 29.97 in - Calm Calm - N/A   Unknown
7:52 AM 17.1 °F 10.0 °F 12.0 °F 81% 29.99 in - South 4.6 mph - N/A   Unknown
8:52 AM 25.0 °F 20.7 °F 12.9 °F 60% 29.97 in - NNW 3.5 mph - N/A   Unknown
9:52 AM 30.0 °F 22.4 °F 12.9 °F 49% 29.95 in - NNE 8.1 mph - N/A   Unknown
10:52 AM 33.1 °F 25.5 °F 12.9 °F 43% 29.93 in - NNE 9.2 mph - N/A   Unknown
11:52 AM 36.0 °F 29.6 °F 12.0 °F 37% 29.90 in - NNE 8.1 mph - N/A   Unknown
12:52 PM 37.0 °F 31.6 °F 12.0 °F 36% 29.88 in - ENE 6.9 mph 16.1 mph N/A   Unknown
1:52 PM 39.0 °F 32.8 °F 12.0 °F 33% 29.86 in - NNE 9.2 mph - N/A   Unknown
2:52 PM 37.9 °F 30.9 °F 12.0 °F 35% 29.85 in - North 10.4 mph - N/A   Unknown
3:52 PM 37.9 °F 33.5 °F 12.0 °F 35% 29.85 in - North 5.8 mph - N/A   Unknown
4:52 PM 37.0 °F 29.8 °F 12.9 °F 37% 29.87 in - North 10.4 mph - N/A   Unknown
5:52 PM 30.0 °F 23.2 °F 12.0 °F 47% 29.90 in - North 6.9 mph - N/A   Unknown
6:52 PM 26.1 °F 19.4 °F 10.9 °F 53% 29.94 in - North 5.8 mph - N/A   Unknown
7:52 PM 23.0 °F - 10.9 °F 60% 29.93 in - Calm Calm - N/A   Unknown
8:52 PM 18.0 °F 12.7 °F 10.0 °F 71% 29.93 in - East 3.5 mph - N/A   Unknown
9:52 PM 12.9 °F 6.9 °F 9.0 °F 84% 29.94 in - ENE 3.5 mph - N/A   Unknown
10:52 PM 14.0 °F 3.9 °F 9.0 °F 80% 29.93 in - South 6.9 mph - N/A   Unknown
11:52 PM 14.0 °F 2.9 °F 10.0 °F 84% 29.91 in - SE 8.1 mph - N/A   Unknown